Location: Im Fang
(46.6019°N, 7.2397°E)
Time: 05:33:24
(UTC+00:00)

Cosmos 1464 Rocket - Pass Details

Date: 08 December 2019
Orbit: 953 x 1001 km, 82.9° (Epoch: 21 January)

Event Time Altitude Azimuth Distance (km) Brightness Sun altitude
Rises 04:23:57 0° 197° (SSW) 3,656 6.9 -26.2°
Reaches altitude 10° 04:26:30 10° 201° (SSW) 2,706 6.2 -25.7°
Maximum altitude 04:32:37 62° 282° (WNW) 1,075 3.9 -24.7°
Drops below altitude 10° 04:38:44 10° 3° (N) 2,698 6.2 -23.6°
Sets 04:41:17 0° 7° (N) 3,645 7.0 -23.2°
